Location: Claremont
(33.9858°S, 18.4575°E)
Time: 04:38:56
(UTC+00:00)

GRACE-FO 2 - Pass Details

Date: 03 March 2021
Orbit: 480 x 505 km, 89.0° (Epoch: 19 April)

Event Time Altitude Azimuth Distance (km) Brightness Sun altitude
Rises 18:37:08 0° 178° (S) 2,585 8.5 -16.4°
Reaches altitude 10° 18:39:15 10° 176° (S) 1,693 7.5 -16.8°
Maximum altitude 18:42:56 79° 89° (E) 503 4.4 -17.5°
Enters shadow 18:45:22 20° 3° (N) 1,185 6.3 -18.0°
